Location: NCO
(38.4404°N, 77.1340°W)
Time: 01:38:11
(UTC-04:00)

Tiangong 1 - Visible Passes

Search period start: 23 September 2017 00:00
Search period end: 03 October 2017 00:00
Orbit: 303 x 328 km, 42.8° (Epoch: 22 September)

Date Brightness Start Highest point End Pass type
(mag) Time Alt. Az. Time Alt. Az. Time Alt. Az.
23 Sep 0.7 05:56:24 23° WNW 05:57:54 75° NNE 06:00:34 10° ESE visible
24 Sep 1.0 06:09:36 17° W 06:11:22 47° SSW 06:13:57 10° SE visible
25 Sep 4.1 04:51:59 12° E 04:51:59 12° E 04:52:15 10° E visible
25 Sep 2.3 06:22:49 11° W 06:24:37 20° SSW 06:26:41 10° SSE visible
26 Sep 3.7 05:05:15 12° SE 05:05:15 12° SE 05:05:32 10° ESE visible
